This demonstration page uses our WeatherBlox Daily Observations layout. Learn more.

Left ArrowRight Arrow

41.12389, -100.76542

Hourly Observations for September 5, 2016

Temp ( °F °C ) Dew Point ( °F °C ) Humidity (%) Winds ( mph kmh ) Pressure ( in mb ) Visibility ( mi km ) Precip ( " mm )
12:53 am 00:53 Clear with Light Rain 69 20.6 63 17.2 81 81 E 5 7 29.68 1005 10 16 0.00 0.03
1:53 am 01:53 Clear 68 20 63 17.2 84 84 NE 7 11 29.68 1005 10 16 0.00 0.03
2:53 am 02:53 Clear 65 18.3 61 16.1 87 87 E 6 9 29.68 1005 10 16 0.00 0.00
3:53 am 03:53 Clear 63 17.2 60 15.6 90 90 E 6 9 29.67 1005 10 16 0.00 0.00
4:53 am 04:53 Clear 63 17.2 61 16.1 93 93 ESE 8 13 29.65 1004 8 13 0.00 0.00
5:53 am 05:53 Clear with Mist and Fog 64 17.8 62 16.7 93 93 ESE 7 11 29.67 1005 6 10 0.00 0.00
6:53 am 06:53 Clear with Mist and Fog 64 17.8 62 16.7 93 93 ESE 7 11 29.67 1005 5 8 0.00 0.00
7:53 am 07:53 Sunny with Mist and Fog 65 18.3 63 17.2 93 93 ESE 6 9 29.68 1005 3 5 0.00 0.00
8:53 am 08:53 Sunny 70 21.1 65 18.3 84 84 Calm 29.70 1006 7 11 0.00 0.00
9:53 am 09:53 Mostly Sunny 75 23.9 66 18.9 74 74 SSW 6 9 29.70 1006 10 16 0.00 0.00
10:14 am 10:14 Mostly Cloudy 77 25 66 19 69 69 VRB 3 6 29.65 1004 10 16 0.00 0.00
10:46 am 10:46 Partly Cloudy 79 26.1 67 19.4 67 67 VRB 3 6 29.65 1004 10 16 0.00 0.00
10:53 am 10:53 Mostly Sunny 80 26.7 67 19.4 64 64 VRB 5 7 29.72 1006 10 16 0.00 0.00
11:26 am 11:26 Mostly Cloudy 82 27.8 66 18.9 58 58 SSE 3 6 29.62 1003 10 16 0.00 0.00
11:37 am 11:37 Mostly Sunny 81 27 66 19 62 62 VRB 5 7 29.62 1003 10 16 0.00 0.00
11:53 am 11:53 Sunny 82 27.8 67 19.4 60 60 W 7 11 29.72 1006 10 16 0.00 0.00
12:53 pm 12:53 Sunny 86 30 68 20 55 55 NW 6 9 29.72 1006 10 16 0.00 0.00
1:53 pm 13:53 Sunny 88 31.1 68 20 52 52 NNW 5 7 29.71 1006 10 16 0.00 0.00
2:53 pm 14:53 Sunny 90 32.2 67 19.4 47 47 VRB 6 9 29.70 1006 10 16 0.00 0.00
3:53 pm 15:53 Sunny 91 32.8 67 19.4 45 45 WNW 8 13 29.70 1006 10 16 0.00 0.00
4:53 pm 16:53 Sunny 91 32.8 65 18.3 42 42 SW 3 6 29.70 1006 9 14 0.00 0.00
5:53 pm 17:53 Sunny 91 32.8 58 14.4 33 33 S 9 15 29.70 1006 10 16 0.00 0.00
6:53 pm 18:53 Sunny 89 31.7 60 15.6 38 38 W 5 7 29.70 1006 10 16 0.00 0.00
7:53 pm 19:53 Mostly Cloudy 82 27.8 67 19.4 60 60 NE 13 20 29.71 1006 10 16 0.00 0.00
8:53 pm 20:53 Clear with Nearby Thunderstorms 77 25 67 19.4 71 71 NE 12 19 29.72 1006 10 16 0.00 0.00
9:01 pm 21:01 Partly Cloudy with Thunderstorms 77 25 67 19.4 71 71 ENE 8 13 29.68 1005 10 16 0.00 0.00
9:14 pm 21:14 Mostly Cloudy with Thunderstorms 72 22 66 19 83 83 SE 10 17 29.71 1006 3 4 0.00 0.00
9:22 pm 21:22 Partly Cloudy with Thunderstorms 72 22.2 64 17.8 76 76 ESE 9 15 29.71 1006 10 16 0.12 3.05
9:39 pm 21:39 Clear with Nearby Thunderstorms 70 21 64 18 83 83 ENE 7 11 29.71 1006 10 16 0.00 0.00
9:53 pm 21:53 Mostly Cloudy with Nearby Thunderstorms 70 21.1 65 18.3 84 84 ENE 7 11 29.75 1007 10 16 0.13 3.30
10:07 pm 22:07 Mostly Cloudy with Thunderstorms 70 21 64 18 83 83 ENE 6 9 29.71 1006 10 16 0.00 0.00
10:53 pm 22:53 Cloudy with Nearby Thunderstorms 69 20.6 63 17.2 81 81 ESE 10 17 29.75 1008 10 16 0.01 0.25
11:08 pm 23:08 Cloudy with Light Rain 68 20 63 17 83 83 E 10 17 29.74 1007 10 16 0.00 0.00
11:53 pm 23:53 Mostly Clear 66 18.9 59 15 78 78 ESE 9 15 29.75 1007 10 16 0.00 0.03

Powered by AerisWeather